QPF
0.00 0.00 0.00 0.00 0.01 0.05 0.02 0.01 0.00 0.00 0.01 0.01 0.02 0.02 0.01 0.00 0.00 0.00 0.00 0.00 0.00 0.00 0.00 0.00 0.00 0.00 0.00 0.01 0.02 0.01 0.00 0.00 0.02
0.01 0.01 0.00 0.00 0.01 0.01 0.00 0.01 0.01 0.00 0.00 0.00 0.01 0.01 0.00 0.00 0.00 0.00 0.00 0.00 0.00 0.00 0.00 0.00 0.00 0.00 0.02 0.02 0.00 0.00 0.00 0.01 0.01
0.00 0.00 0.00 0.00 0.00 0.00 0.01 0.02 0.00 0.00 0.00 0.00 0.01 0.00 0.00 0.00 0.00 0.00 0.00 0.00 0.00 0.00 0.00 0.00 0.00 0.02 0.04 0.01 0.01 0.00 0.01 0.01 0.00
0.02 0.02 0.00 0.01 0.03 0.02 0.01 0.02 0.01 0.00 0.00 0.00 0.00 0.00 0.00 0.00 0.01 0.00 0.00 0.00 0.00 0.00 0.01 0.02 0.01 0.02 0.02 0.01 0.01 0.01 0.02 0.01 0.00
0.01 0.02 0.03 0.01 0.03 0.02 0.00 0.00 0.00 0.00 0.00 0.00 0.00 0.00 0.00 0.00 0.00 0.00 0.00 0.00 0.00 0.00 0.00 0.01 0.01 0.00 0.00 0.00 0.00 0.01 0.02 0.00 0.00
0.00 0.00 0.01 0.04 0.03 0.02 0.00 0.00 0.00 0.00 0.00 0.00 0.00 0.00 0.00 0.00 0.00 0.00 0.00 0.00 0.00 0.00 0.01 0.01 0.00 0.00 0.00 0.00 0.01 0.02 0.01 0.00 0.00
0.00 0.00 0.00 0.02 0.04 0.06 0.02 0.00 0.00 0.00 0.00 0.00 0.00 0.00 0.00 0.00 0.00 0.00 0.00 0.00 0.00 0.00 0.01 0.00 0.00 0.00 0.00 0.01 0.03 0.01 0.01 0.00 0.00
0.00 0.00 0.00 0.00 0.00 0.01 0.02 0.01 0.01 0.01 0.00 0.00 0.00 0.00 0.00 0.00 0.00 0.00 0.00 0.01 0.01 0.03 0.03 0.00 0.00 0.00 0.00 0.01 0.02 0.00 0.00 0.00 0.00
0.01 0.02 0.01 0.00 0.00 0.02 0.02 0.01 0.01 0.01 0.01 0.01 0.00 0.00 0.00 0.00 0.01 0.00 0.00 0.01 0.04 0.05 0.04 0.00 0.00 0.00 0.00 0.00 0.00 0.00 0.00 0.00 0.00
0.07 0.08 0.10 0.07 0.03 0.00 0.01 0.01 0.00 0.00 0.01 0.02 0.01 0.00 0.00 0.01 0.01 0.00 0.00 0.00 0.03 0.07 0.02 0.04 0.00 0.00 0.00 0.00 0.00 0.00 0.00 0.00 0.00
0.08 0.09 0.12 0.10 0.09 0.07 0.02 0.01 0.00 0.00 0.00 0.00 0.00 0.00 0.00 0.00 0.00 0.00 0.00 0.00 0.01 0.04 0.03 0.06 0.03 0.00 0.01 0.01 0.00 0.00 0.00 0.00 0.00
0.07 0.10 0.14 0.26 0.20 0.16 0.08 0.04 0.00 0.00 0.00 0.00 0.00 0.00 0.00 0.00 0.00 0.00 0.00 0.00 0.00 0.00 0.04 0.10 0.11 0.03 0.01 0.01 0.00 0.00 0.00 0.00 0.00
0.06 0.11 0.14 0.23 0.23 0.15 0.15 0.11 0.06 0.02 0.01 0.00 0.00 0.00 0.00 0.00 0.00 0.00 0.00 0.00 0.00 0.00 0.00 0.03 0.13 0.10 0.05 0.03 0.00 0.00 0.00 0.00 0.00
0.01 0.04 0.10 0.16 0.33 0.42 0.25 0.15 0.08 0.05 0.03 0.02 0.01 0.00 0.00 0.00 0.00 0.00 0.00 0.00 0.00 0.00 0.00 0.00 0.01 0.06 0.09 0.08 0.05 0.00 0.00 0.00 0.00
0.00 0.00 0.02 0.07 0.13 0.23 0.39 0.29 0.21 0.17 0.14 0.09 0.04 0.01 0.00 0.00 0.00 0.00 0.00 0.00 0.00 0.00 0.00 0.00 0.00 0.00 0.01 0.05 0.07 0.04 0.00 0.00 0.00
0.00 0.00 0.00 0.01 0.04 0.09 0.15 0.39 0.33 0.11 0.08 0.14 0.13 0.07 0.04 0.01 0.00 0.00 0.00 0.00 0.00 0.00 0.00 0.00 0.00 0.00 0.00 0.01 0.03 0.07 0.04 0.00 0.00
0.00 0.00 0.00 0.00 0.01 0.04 0.13 0.26 0.33 0.20 0.10 0.10 0.10 0.07 0.04 0.03 0.02 0.01 0.00 0.00 0.00 0.00 0.00 0.00 0.00 0.00 0.00 0.00 0.01 0.04 0.06 0.05 0.00
0.00 0.00 0.00 0.00 0.00 0.00 0.02 0.15 0.40 0.50 0.41 0.25 0.22 0.15 0.05 0.01 0.01 0.00 0.00 0.00 0.00 0.00 0.00 0.00 0.00 0.00 0.00 0.00 0.00 0.01 0.04 0.06 0.07
0.00 0.00 0.00 0.00 0.00 0.00 0.00 0.05 0.27 0.60 0.59 0.63 0.54 0.29 0.09 0.04 0.01 0.00 0.01 0.01 0.00 0.00 0.00 0.00 0.00 0.00 0.00 0.00 0.00 0.00 0.00 0.00 0.04
0.00 0.00 0.01 0.00 0.00 0.00 0.01 0.02 0.07 0.28 0.50 0.47 0.62 0.58 0.31 0.13 0.04 0.01 0.01 0.02 0.01 0.00 0.00 0.00 0.00 0.00 0.00 0.00 0.00 0.00 0.00 0.00 0.03
MSLP
1016.46 1016.61 1016.65 1016.97 1017.11 1017.32 1017.43 1017.60 1017.72 1017.97 1018.26 1018.42 1018.46 1018.63 1018.81 1018.94 1019.08 1019.33 1019.53 1019.72 1019.84 1020.07 1020.26 1020.32 1020.43 1020.56 1020.94 1020.93 1020.95 1021.05 1021.23 1021.43 1021.54
1016.22 1016.60 1016.79 1016.83 1017.14 1017.39 1017.47 1017.56 1017.58 1017.92 1018.22 1018.60 1018.75 1018.87 1019.03 1019.07 1019.21 1019.36 1019.64 1019.81 1020.11 1020.33 1020.45 1020.61 1020.71 1020.87 1020.94 1021.11 1021.24 1021.39 1021.64 1021.74 1021.91
1016.15 1016.41 1016.59 1016.90 1017.02 1017.21 1017.41 1017.53 1017.65 1017.97 1018.17 1018.52 1018.87 1018.94 1019.18 1019.37 1019.29 1019.52 1019.80 1019.75 1020.04 1020.40 1020.61 1020.77 1020.78 1020.99 1021.11 1021.30 1021.51 1021.71 1021.89 1022.08 1022.24
1016.33 1016.37 1016.40 1016.54 1016.91 1017.05 1017.28 1017.51 1017.57 1017.97 1018.21 1018.44 1018.86 1018.98 1019.26 1019.47 1019.49 1019.56 1019.90 1019.77 1020.05 1020.25 1020.45 1020.68 1020.92 1021.17 1021.30 1021.63 1021.75 1021.95 1022.02 1022.25 1022.50
1016.12 1016.33 1016.54 1016.45 1016.59 1016.86 1017.17 1017.37 1017.55 1017.76 1018.15 1018.54 1018.83 1019.03 1019.22 1019.48 1019.31 1019.40 1019.72 1019.67 1019.88 1020.17 1020.51 1020.76 1021.01 1021.23 1021.52 1021.85 1022.00 1022.25 1022.43 1022.54 1022.78
1016.00 1016.11 1016.23 1016.43 1016.58 1016.58 1016.83 1017.11 1017.48 1017.77 1018.08 1018.34 1018.68 1018.87 1019.12 1019.47 1019.36 1019.42 1019.37 1019.48 1019.72 1020.13 1020.45 1020.72 1020.91 1021.34 1021.53 1021.95 1022.21 1022.38 1022.56 1022.80 1022.99
1015.68 1015.86 1015.98 1016.17 1016.50 1016.75 1016.70 1016.85 1017.21 1017.72 1018.15 1018.42 1018.58 1018.78 1018.87 1019.26 1019.31 1019.26 1019.09 1019.25 1019.52 1019.92 1020.26 1020.56 1020.70 1021.09 1021.51 1021.87 1022.23 1022.45 1022.64 1022.94 1023.29
1015.56 1015.68 1015.78 1015.96 1016.24 1016.60 1016.88 1016.94 1017.12 1017.85 1018.06 1018.51 1018.64 1018.71 1018.88 1019.14 1019.03 1018.93 1018.93 1019.03 1019.32 1019.72 1020.09 1020.35 1020.62 1020.95 1021.39 1021.73 1022.14 1022.32 1022.82 1023.18 1023.52
1015.35 1015.50 1015.68 1015.85 1016.16 1016.52 1016.72 1017.00 1017.13 1017.12 1017.98 1017.61 1018.33 1018.30 1018.67 1018.72 1018.82 1018.66 1018.78 1019.00 1019.11 1019.48 1019.97 1020.22 1020.55 1020.84 1021.16 1021.51 1021.94 1022.26 1022.61 1022.87 1023.45
1015.20 1015.53 1015.75 1015.79 1015.99 1016.31 1016.75 1017.08 1016.98 1017.05 1016.91 1017.40 1017.18 1017.74 1018.12 1018.35 1018.38 1018.46 1018.65 1018.83 1019.01 1019.33 1019.70 1019.93 1020.31 1020.70 1021.05 1021.28 1021.53 1021.83 1022.32 1022.61 1023.23
1015.16 1015.29 1015.60 1015.75 1015.89 1016.26 1016.52 1016.76 1016.85 1016.86 1016.84 1016.86 1016.68 1017.01 1017.27 1017.80 1017.96 1018.10 1018.46 1018.68 1018.89 1019.07 1019.25 1019.71 1019.93 1020.38 1020.76 1021.10 1021.44 1021.60 1021.92 1022.21 1022.90
1014.97 1015.24 1015.47 1015.42 1015.73 1015.80 1016.07 1016.78 1017.04 1016.89 1016.76 1016.82 1016.62 1016.77 1016.79 1017.07 1017.47 1017.84 1018.21 1018.52 1018.72 1018.78 1019.02 1019.31 1019.61 1019.89 1020.21 1020.62 1021.14 1021.51 1021.63 1021.95 1022.60
1015.43 1015.75 1015.57 1015.24 1015.48 1015.76 1016.18 1015.70 1016.58 1016.83 1016.56 1016.64 1016.45 1016.36 1016.38 1016.63 1016.97 1017.51 1018.01 1018.27 1018.49 1018.68 1018.67 1018.73 1019.24 1019.56 1019.83 1020.10 1020.55 1021.14 1021.55 1021.75 1022.24
1015.98 1015.65 1015.52 1015.23 1015.05 1013.92 1015.45 1015.27 1016.11 1016.19 1016.48 1016.11 1016.06 1015.83 1016.08 1016.27 1016.50 1017.03 1017.53 1017.93 1018.09 1018.31 1018.30 1018.36 1018.69 1019.10 1019.44 1019.67 1019.98 1020.45 1021.08 1021.55 1021.93
1016.82 1016.58 1016.12 1015.27 1015.07 1015.20 1014.94 1014.83 1015.62 1015.61 1015.44 1015.63 1015.68 1015.36 1015.68 1015.83 1016.26 1016.64 1016.89 1017.42 1017.79 1018.09 1018.12 1018.30 1018.42 1018.48 1018.87 1019.24 1019.56 1019.93 1020.43 1021.12 1021.54
1017.65 1017.41 1016.97 1016.41 1015.73 1015.19 1015.12 1015.30 1014.24 1015.27 1015.20 1015.37 1015.43 1015.76 1015.82 1015.68 1015.76 1015.98 1016.36 1016.91 1017.31 1017.64 1017.82 1017.99 1018.19 1018.25 1018.41 1018.66 1018.98 1019.40 1019.72 1020.27 1020.82
1018.67 1018.53 1018.17 1017.49 1016.56 1015.87 1015.99 1015.50 1014.70 1014.45 1014.55 1014.46 1015.00 1015.30 1016.03 1015.88 1015.76 1015.96 1016.15 1016.32 1016.64 1016.93 1017.32 1017.62 1017.87 1017.96 1018.12 1018.33 1018.54 1018.87 1019.25 1019.57 1020.15
1019.92 1019.38 1019.05 1018.39 1017.75 1017.36 1016.91 1016.09 1015.65 1014.31 1013.52 1013.32 1013.78 1014.45 1014.43 1015.22 1015.27 1015.47 1015.61 1015.87 1016.06 1016.29 1016.64 1016.98 1017.37 1017.62 1017.82 1017.97 1018.19 1018.32 1018.60 1018.94 1019.23
1020.67 1020.13 1019.86 1019.28 1018.70 1018.25 1017.77 1017.00 1016.44 1015.36 1014.00 1013.82 1012.57 1013.53 1013.70 1014.25 1014.71 1014.95 1015.03 1015.36 1015.60 1015.89 1016.16 1016.37 1016.73 1017.04 1017.38 1017.59 1017.70 1017.94 1018.14 1018.39 1018.67
1021.32 1020.90 1020.43 1019.83 1019.61 1019.28 1018.68 1017.76 1017.34 1016.74 1015.88 1014.96 1014.29 1013.74 1014.52 1013.31 1013.80 1014.39 1014.51 1014.94 1015.06 1015.38 1015.55 1015.64 1016.10 1016.44 1016.78 1017.01 1017.11 1017.21 1017.50 1017.79 1018.02
Thickness
5691 5691 5691 5690 5690 5690 5691 5691 5692 5691 5690 5689 5689 5689 5689 5689 5689 5689 5688 5687 5686 5685 5685 5686 5688 5688 5687 5688 5688 5689 5689 5690 5690
5689 5687 5687 5687 5687 5686 5688 5689 5690 5688 5688 5685 5685 5685 5685 5687 5687 5687 5686 5684 5683 5682 5682 5682 5683 5684 5685 5684 5685 5686 5685 5685 5685
5684 5684 5684 5683 5683 5684 5685 5686 5687 5685 5685 5683 5681 5682 5682 5682 5684 5683 5682 5683 5681 5680 5680 5680 5681 5680 5681 5681 5682 5682 5682 5681 5681
5679 5679 5682 5682 5680 5680 5682 5682 5684 5681 5680 5680 5677 5679 5679 5680 5680 5679 5678 5680 5679 5679 5679 5678 5677 5677 5677 5677 5677 5678 5678 5677 5676
5674 5676 5677 5678 5679 5678 5678 5679 5679 5678 5677 5676 5675 5675 5675 5677 5678 5678 5678 5678 5677 5677 5676 5675 5674 5673 5672 5672 5672 5672 5672 5672 5671
5671 5672 5673 5673 5674 5676 5676 5676 5675 5674 5673 5673 5672 5672 5673 5673 5675 5675 5677 5676 5675 5673 5672 5671 5671 5669 5669 5667 5666 5667 5667 5666 5666
5667 5667 5668 5669 5668 5667 5670 5672 5672 5670 5667 5667 5667 5669 5671 5670 5670 5672 5674 5674 5672 5670 5670 5667 5668 5667 5665 5663 5663 5662 5662 5661 5660
5659 5660 5662 5663 5663 5663 5662 5664 5666 5660 5661 5660 5661 5664 5665 5664 5666 5669 5670 5671 5669 5667 5666 5665 5664 5664 5661 5660 5658 5658 5656 5655 5654
5653 5654 5655 5656 5656 5656 5656 5657 5657 5653 5652 5655 5653 5660 5659 5660 5662 5665 5665 5665 5665 5664 5662 5660 5659 5659 5658 5657 5655 5654 5653 5652 5650
5646 5646 5646 5647 5649 5648 5649 5648 5650 5650 5655 5651 5655 5654 5654 5655 5658 5661 5659 5659 5659 5660 5659 5657 5656 5654 5653 5653 5653 5653 5651 5650 5646
5636 5638 5637 5639 5640 5640 5640 5640 5641 5642 5644 5646 5650 5650 5652 5652 5654 5655 5653 5653 5654 5655 5656 5653 5653 5650 5649 5648 5647 5649 5648 5647 5643
5627 5628 5629 5632 5633 5634 5634 5630 5629 5633 5635 5639 5643 5643 5644 5648 5649 5649 5648 5647 5648 5649 5650 5649 5648 5648 5647 5645 5643 5642 5643 5642 5639
5614 5615 5620 5624 5626 5626 5624 5628 5624 5625 5630 5631 5634 5637 5639 5641 5644 5642 5641 5640 5641 5643 5644 5645 5644 5644 5643 5642 5640 5638 5636 5636 5635
5601 5605 5608 5613 5619 5623 5614 5615 5617 5621 5620 5626 5628 5633 5633 5634 5635 5634 5636 5634 5635 5636 5638 5640 5640 5638 5638 5638 5636 5636 5633 5630 5630
5584 5587 5593 5602 5608 5608 5612 5617 5612 5616 5620 5620 5622 5625 5625 5626 5625 5626 5628 5627 5627 5627 5630 5631 5632 5635 5634 5633 5631 5630 5629 5625 5625
5568 5571 5575 5582 5591 5598 5602 5602 5606 5606 5611 5609 5611 5611 5612 5617 5620 5619 5621 5620 5621 5620 5621 5622 5623 5626 5627 5628 5627 5625 5625 5623 5621
5546 5550 5555 5562 5572 5581 5582 5587 5599 5597 5602 5607 5604 5603 5601 5606 5610 5610 5611 5615 5615 5616 5615 5614 5615 5618 5619 5621 5621 5620 5619 5620 5616
5526 5532 5536 5543 5551 5556 5561 5571 5578 5596 5603 5606 5603 5599 5603 5600 5602 5603 5604 5606 5608 5610 5608 5608 5607 5609 5611 5612 5613 5615 5614 5613 5614
5509 5515 5518 5524 5530 5536 5542 5550 5557 5569 5588 5590 5597 5594 5596 5592 5594 5596 5598 5598 5599 5599 5600 5600 5600 5600 5601 5603 5605 5606 5607 5606 5605
5493 5499 5504 5508 5511 5514 5521 5530 5534 5542 5555 5570 5575 5577 5572 5585 5589 5588 5591 5589 5592 5591 5593 5593 5592 5592 5592 5593 5596 5598 5599 5598 5598